• Join FlightAware (Why Join?)
  • Login
  • US Flag 
12:05AM EDT


 

Airport Tracker/Info


-or-


 

Live Flight TrackerFlight Track Log ✈ N983CA ✈ 23-Apr-2013 ✈ KSFO - KEUG

Flight Track Log - Related Links

Times and Time Zones

All times are in EDT time to prevent confusion due to time zone crossing. See the N983CA flight status page for this flight to view local times or setup timezone preferences in your user account.

Time Position Orientation Groundspeed Altitude Reporting Facility
EDT Latitude Longitude Course Direction KTS MPH feet Rate Location/Type
08:09PM 37.6333 -122.3667 North 169 194 900  Level Northern Cal TRACON
08:10PM 37.6486 -122.3381 56° Northeast 177 204 2,200 1,980 Climbing Oakland Center
08:11PM 37.6953 -122.2869 41° Northeast 217 250 4,300 2,400 Climbing Oakland Center
08:12PM 37.6177 -122.3665 North  Level FlightAware Approximate
08:12PM 37.7822 -122.2767 North 265 305 7,200  Level Oakland Center
08:13PM 37.7636 -122.3503 North  Level FlightAware Approximate
08:13PM 37.8592 -122.2714 North 275 316 9,300  Level Oakland Center
08:14PM 37.9099 -122.3500 North  Level FlightAware Approximate
08:14PM 37.9414 -122.2686 North 291 335 11,400  Level Oakland Center
08:15PM 38.0065 -122.3500 North  Level FlightAware Approximate
08:15PM 38.0294 -122.2686 360° North 316 364 13,000  Level Oakland Center
08:16PM 38.1219 -122.2692 360° North 332 382 15,000 1,860 Climbing Oakland Center
08:17PM 38.2150 -122.2675 North 335 386 16,800 1,860 Climbing Oakland Center
08:18PM 38.3089 -122.2683 360° North 337 388 18,900 1,800 Climbing Oakland Center
08:19PM 38.4211 -122.2853 353° North 337 388 20,600 1,500 Climbing Oakland Center
08:20PM 38.5158 -122.2994 353° North 342 394 22,000 1,260 Climbing Oakland Center
08:21PM 38.6125 -122.3131 354° North 347 399 23,200 1,080 Climbing Oakland Center
08:22PM 38.7081 -122.3272 353° North 351 404 24,200 1,020 Climbing Oakland Center
08:23PM 38.8083 -122.3422 353° North 357 411 25,300 1,020 Climbing Oakland Center
08:24PM 38.9086 -122.3589 353° North 359 413 26,400 840 Climbing Oakland Center
08:25PM 39.0094 -122.3747 353° North 361 415 27,100 600 Climbing Oakland Center
08:26PM 39.1125 -122.3911 353° North 365 420 27,700 480 Climbing Oakland Center
08:27PM 39.2253 -122.4044 355° North 390 449 28,200 480 Climbing Oakland Center
08:28PM 39.3333 -122.4208 353° North 391 450 28,800 540 Climbing Oakland Center
08:29PM 39.4658 -122.4419 353° North 397 457 29,400 540 Climbing Oakland Center
08:30PM 39.5769 -122.4597 353° North 401 461 29,900 480 Climbing Oakland Center
08:31PM 39.6881 -122.4761 354° North 401 461 30,400 480 Climbing Oakland Center
08:32PM 39.7969 -122.4956 352° North 397 457 30,900 480 Climbing Oakland Center
08:33PM 39.9058 -122.5147 352° North 396 456 31,400 480 Climbing Oakland Center
08:34PM 40.0167 -122.5308 354° North 397 457 31,900 240 Climbing Oakland Center
08:35PM 40.1267 -122.5483 353° North 397 457 32,000  Climbing Oakland Center
08:36PM 40.2344 -122.5628 354° North 407 468 32,000  Level Oakland Center
08:37PM 40.3661 -122.5853 353° North 400 460 32,000  Level Oakland Center
08:38PM 40.4753 -122.6019 353° North 397 457 32,000  Level Oakland Center
08:39PM 40.5822 -122.6192 353° North 391 450 32,000  Level Oakland Center
08:40PM 40.6889 -122.6367 353° North 389 448 32,000  Level Oakland Center
08:41PM 40.7947 -122.6536 353° North 387 445 32,000  Level Oakland Center
08:42PM 40.9064 -122.6717 353° North 392 451 32,000  Level Oakland Center
08:43PM 41.0136 -122.6878 354° North 390 449 32,000  Level Oakland Center
08:44PM 41.1214 -122.7067 352° North 391 450 32,000  Level Oakland Center
08:45PM 41.1650 -122.7142 353° North 390 449 32,000  Level Seattle Center
08:46PM 41.2725 -122.7314 353° North 388 447 32,000  Level Seattle Center
08:47PM 41.3797 -122.7489 353° North 388 447 32,000  Level Seattle Center
08:48PM 41.5089 -122.7700 353° North 388 447 32,000  Level Seattle Center
08:49PM 41.6164 -122.7883 353° North 387 445 32,000  Level Seattle Center
08:50PM 41.7233 -122.8053 353° North 386 444 32,000  Level Seattle Center
08:51PM 41.8300 -122.8231 353° North 383 441 32,000  Level Seattle Center
08:52PM 41.9372 -122.8406 353° North 384 442 32,000  Level Seattle Center
08:53PM 42.0447 -122.8586 353° North 388 447 32,000  Level Seattle Center
08:54PM 42.1533 -122.8778 353° North 392 451 32,000  Level Seattle Center
08:55PM 42.2581 -122.8953 353° North 382 440 32,000  Level Seattle Center
08:56PM 42.3639 -122.9128 353° North 381 438 32,000  Level Seattle Center
08:57PM 42.4708 -122.9333 352° North 384 442 32,000  Level Seattle Center
08:58PM 42.5775 -122.9497 354° North 384 442 32,000  Level Seattle Center
08:59PM 42.6831 -122.9686 353° North 383 441 32,000 -540 Level Seattle Center
09:00PM 42.7844 -122.9856 353° North 382 440 31,000 -1,860 Descending Seattle Center
09:01PM 42.8986 -123.0056 353° North 402 463 28,300 -3,000 Descending Seattle Center
09:02PM 43.0358 -122.9564 15° North 424 488 25,000 -3,000 Descending Seattle Center
09:03PM 43.1417 -122.9231 13° North 403 464 22,300 -2,700 Descending Seattle Center
09:04PM 43.2422 -122.9472 350° North 375 432 19,600 -2,580 Descending Seattle Center
09:05PM 43.3436 -122.9758 348° North 372 428 17,100 -2,520 Descending Seattle Center
09:06PM 43.4378 -123.0069 347° North 355 409 14,500 -2,340 Descending Seattle Center
09:07PM 43.5294 -123.0381 346° North 341 392 12,400 -1,680 Descending Seattle Center
09:08PM 43.6119 -123.0617 348° North 319 367 11,100 -1,260 Descending Seattle Center
09:09PM 43.6781 -123.0864 345° North 273 314 9,900 -1,200 Descending Seattle Center
09:10PM 43.7247 -123.1442 318° Northwest 243 280 8,700 -1,320 Descending Seattle Center
09:11PM 43.7719 -123.1964 321° Northwest 227 261 7,300 -1,440 Descending Seattle Center
09:12PM 43.8200 -123.2489 322° Northwest 221 254 5,800 -1,440 Descending Seattle Center
09:13PM 43.8733 -123.2617 350° North 227 261 4,400 -900 Descending Seattle Center
09:14PM 43.9211 -123.2267 28° Northeast 202 232 4,000 -600 Descending Seattle Center
09:15PM 43.9647 -123.2175 North 177 204 3,200 -840 Descending Seattle Center